TimeCDT,TemperatureF,Dew PointF,Humidity,Sea Level PressureIn,VisibilityMPH,Wind Direction,Wind SpeedMPH,Gust SpeedMPH,PrecipitationIn,Events,Conditions,WindDirDegrees,DateUTC
12:53 AM,57.2,51.8,82,30.37,10.0,SSE,5.8,-,N/A,,Clear,150,2013-03-14 05:53:00
1:53 AM,55.0,50.0,83,30.35,10.0,Calm,Calm,-,N/A,,Clear,0,2013-03-14 06:53:00
2:53 AM,51.1,46.0,83,30.35,5.0,Calm,Calm,-,N/A,,Haze,0,2013-03-14 07:53:00
3:06 AM,50.0,46.4,87,30.34,2.5,Calm,Calm,-,N/A,,Clear,0,2013-03-14 08:06:00
3:15 AM,50.0,46.4,87,30.34,7.0,Calm,Calm,-,N/A,,Clear,0,2013-03-14 08:15:00
3:53 AM,48.9,44.1,83,30.33,9.0,Calm,Calm,-,N/A,,Clear,0,2013-03-14 08:53:00
4:53 AM,48.9,46.0,90,30.32,1.2,Calm,Calm,-,N/A,,Clear,0,2013-03-14 09:53:00
5:01 AM,48.2,46.4,93,30.32,0.2,Calm,Calm,-,N/A,Fog,Fog,0,2013-03-14 10:01:00
5:18 AM,48.2,44.6,87,30.32,0.8,Calm,Calm,-,N/A,,Mist,0,2013-03-14 10:18:00
5:39 AM,46.4,42.8,87,30.33,0.5,East,3.5,-,N/A,Fog,Fog,80,2013-03-14 10:39:00
5:53 AM,46.0,43.0,89,30.33,0.8,East,4.6,-,N/A,,Clear,80,2013-03-14 10:53:00
6:00 AM,46.4,42.8,87,30.33,2.0,East,4.6,-,N/A,,Clear,80,2013-03-14 11:00:00
6:10 AM,48.2,44.6,87,30.33,1.2,East,6.9,-,N/A,,Clear,80,2013-03-14 11:10:00
6:30 AM,48.2,46.4,93,30.34,0.5,East,4.6,-,N/A,Fog,Fog,90,2013-03-14 11:30:00
6:53 AM,48.0,46.0,93,30.35,0.8,East,5.8,-,N/A,,Clear,80,2013-03-14 11:53:00
7:03 AM,48.2,44.6,87,30.35,0.5,East,5.8,-,N/A,Fog,Fog,80,2013-03-14 12:03:00
7:53 AM,48.9,46.0,90,30.37,0.2,East,6.9,-,N/A,Fog,Fog,80,2013-03-14 12:53:00
8:18 AM,51.8,48.2,88,30.37,3.0,East,4.6,-,N/A,,Clear,90,2013-03-14 13:18:00
8:53 AM,59.0,57.0,93,30.38,10.0,ESE,5.8,-,N/A,,Clear,110,2013-03-14 13:53:00
9:53 AM,66.9,55.0,66,30.40,10.0,SE,9.2,-,N/A,,Clear,130,2013-03-14 14:53:00
10:53 AM,71.1,51.1,49,30.41,10.0,SSE,13.8,-,N/A,,Clear,160,2013-03-14 15:53:00
11:53 AM,72.0,50.0,46,30.41,10.0,SE,15.0,-,N/A,,Clear,130,2013-03-14 16:53:00
12:53 PM,73.0,50.0,44,30.40,10.0,SSE,13.8,-,N/A,,Clear,160,2013-03-14 17:53:00
1:53 PM,73.9,50.0,43,30.38,10.0,SSE,13.8,19.6,N/A,,Clear,150,2013-03-14 18:53:00
2:53 PM,72.0,48.0,43,30.35,10.0,SSE,13.8,20.7,N/A,,Clear,160,2013-03-14 19:53:00
3:53 PM,73.0,48.9,42,30.33,10.0,SE,13.8,-,N/A,,Clear,140,2013-03-14 20:53:00
4:53 PM,72.0,48.9,44,30.32,10.0,SSE,15.0,21.9,N/A,,Clear,150,2013-03-14 21:53:00
5:53 PM,71.1,50.0,47,30.31,10.0,SE,12.7,-,N/A,,Clear,140,2013-03-14 22:53:00
6:53 PM,68.0,48.9,50,30.31,10.0,SE,12.7,-,N/A,,Clear,130,2013-03-14 23:53:00
7:53 PM,64.0,50.0,60,30.30,10.0,ESE,10.4,-,N/A,,Clear,120,2013-03-15 00:53:00
8:53 PM,62.1,51.1,67,30.30,10.0,SE,8.1,-,N/A,,Clear,130,2013-03-15 01:53:00
9:53 PM,59.0,51.1,75,30.31,10.0,ESE,5.8,-,N/A,,Clear,110,2013-03-15 02:53:00
10:53 PM,55.9,50.0,80,30.31,10.0,ESE,5.8,-,N/A,,Clear,110,2013-03-15 03:53:00
11:53 PM,55.9,51.1,84,30.30,10.0,ESE,5.8,-,N/A,,Clear,120,2013-03-15 04:53:00